LNI845 WAOO-WADD

Flight info

Callsign LNI845
Flight time 1h 1m
Altitude 36000
Route ATSIP T28 KOLTA
Aircraft B738/M-SDE2E3FGHIRWXY/LB1

Departure

Time 2026-04-14 05:49
Airport Syamsudin Noor International Airport (WAOO)

Arrival

Time 2026-04-14 06:50
Airport Denpasar I Gusti Ngurah Rai International Airport (WADD)
Time Latitude Longitude Altitude Speed Heading
2026-04-14 05:16 -3.43841 114.75974 74 ft 0 kts 10°
2026-04-14 05:37 -3.43854 114.75972 65 ft 4 kts 10°
2026-04-14 05:37 -3.43880 114.75967 74 ft 4 kts 11°
2026-04-14 05:37 -3.43905 114.75963 74 ft 4 kts 343°
2026-04-14 05:37 -3.43923 114.75978 70 ft 4 kts 297°
2026-04-14 05:38 -3.43931 114.75997 66 ft 0 kts 280°
2026-04-14 05:43 -3.43930 114.75992 74 ft 3 kts 284°
2026-04-14 05:43 -3.43919 114.75962 74 ft 5 kts 287°
2026-04-14 05:43 -3.43912 114.75928 69 ft 5 kts 281°
2026-04-14 05:43 -3.43905 114.75894 66 ft 5 kts 281°
2026-04-14 05:44 -3.43898 114.75854 74 ft 6 kts 280°
2026-04-14 05:44 -3.43891 114.75813 74 ft 6 kts 280°
2026-04-14 05:44 -3.43884 114.75774 67 ft 6 kts 280°
2026-04-14 05:44 -3.43876 114.75735 65 ft 6 kts 280°
2026-04-14 05:45 -3.43893 114.75704 69 ft 6 kts 207°
2026-04-14 05:45 -3.43933 114.75694 74 ft 6 kts 192°
2026-04-14 05:45 -3.43976 114.75685 71 ft 6 kts 191°
2026-04-14 05:45 -3.44019 114.75676 71 ft 6 kts 190°
2026-04-14 05:46 -3.44069 114.75668 64 ft 9 kts 188°
2026-04-14 05:46 -3.44113 114.75622 69 ft 11 kts 270°
2026-04-14 05:46 -3.44099 114.75532 69 ft 17 kts 280°
2026-04-14 05:46 -3.44076 114.75411 64 ft 18 kts 281°
2026-04-14 05:47 -3.44053 114.75289 65 ft 17 kts 282°
2026-04-14 05:47 -3.44010 114.75206 68 ft 8 kts 301°
2026-04-14 05:47 -3.44019 114.75172 65 ft 4 kts 201°
2026-04-14 05:47 -3.44032 114.75185 73 ft 0 kts 102°
2026-04-14 05:48 -3.44035 114.75197 69 ft 7 kts 102°
2026-04-14 05:48 -3.44081 114.75442 63 ft 69 kts 100°
2026-04-14 05:48 -3.44208 114.76127 75 ft 128 kts 101°
2026-04-14 05:48 -3.44381 114.77166 150 ft 168 kts 97°
2026-04-14 05:49 -3.44584 114.78344 717 ft 171 kts 98°
2026-04-14 05:49 -3.44816 114.79517 1420 ft 176 kts 107°
2026-04-14 05:49 -3.45408 114.80678 1752 ft 206 kts 117°
2026-04-14 05:49 -3.46155 114.81999 1982 ft 230 kts 117°
2026-04-14 05:50 -3.46972 114.83461 2232 ft 252 kts 117°
2026-04-14 05:50 -3.47835 114.85025 2861 ft 260 kts 117°
2026-04-14 05:50 -3.48703 114.86616 3717 ft 259 kts 117°
2026-04-14 05:50 -3.49570 114.88213 4518 ft 264 kts 117°
2026-04-14 05:51 -3.50448 114.89846 5244 ft 269 kts 117°
2026-04-14 05:51 -3.51328 114.91488 5965 ft 273 kts 117°
2026-04-14 05:51 -3.52231 114.93176 6647 ft 278 kts 117°
2026-04-14 05:51 -3.53149 114.94891 7394 ft 279 kts 117°
2026-04-14 05:52 -3.54332 114.96449 8019 ft 287 kts 142°
2026-04-14 05:52 -3.56121 114.97353 8700 ft 291 kts 160°
2026-04-14 05:52 -3.58074 114.97951 9357 ft 296 kts 163°
2026-04-14 05:52 -3.60066 114.98510 10027 ft 298 kts 163°
2026-04-14 05:53 -3.62080 114.99067 10431 ft 312 kts 163°
2026-04-14 05:53 -3.64237 114.99671 10594 ft 333 kts 163°
2026-04-14 05:53 -3.66533 115.00322 10748 ft 351 kts 163°
2026-04-14 05:53 -3.68929 115.01006 11113 ft 361 kts 163°
2026-04-14 05:54 -3.71361 115.01704 11688 ft 364 kts 163°
2026-04-14 05:54 -3.73798 115.02409 12337 ft 365 kts 163°
2026-04-14 05:54 -3.76248 115.03120 12953 ft 368 kts 163°
2026-04-14 05:54 -3.78723 115.03837 13485 ft 372 kts 164°
2026-04-14 05:55 -3.81224 115.04563 14050 ft 376 kts 164°
2026-04-14 05:55 -3.83747 115.05295 14598 ft 379 kts 164°
2026-04-14 05:55 -3.86301 115.06037 15116 ft 384 kts 164°
2026-04-14 05:55 -3.88883 115.06787 15695 ft 387 kts 164°
2026-04-14 05:56 -3.91481 115.07543 16235 ft 390 kts 164°
2026-04-14 05:56 -3.94067 115.08294 16741 ft 394 kts 165°
2026-04-14 05:56 -3.96727 115.09066 17204 ft 398 kts 165°
2026-04-14 05:56 -3.99448 115.09591 17666 ft 401 kts 180°
2026-04-14 05:57 -4.02198 115.09191 18160 ft 402 kts 199°
2026-04-14 05:57 -4.04745 115.08030 18683 ft 403 kts 207°
2026-04-14 05:57 -4.07238 115.06724 19160 ft 406 kts 208°
2026-04-14 05:57 -4.09741 115.05385 19584 ft 408 kts 208°
2026-04-14 05:58 -4.12259 115.04038 19996 ft 412 kts 208°
2026-04-14 05:58 -4.14802 115.02687 20457 ft 414 kts 208°
2026-04-14 05:58 -4.17322 115.01359 20910 ft 415 kts 208°
2026-04-14 05:58 -4.19895 115.00011 21306 ft 418 kts 208°
2026-04-14 05:59 -4.22485 114.98657 21666 ft 421 kts 208°
2026-04-14 05:59 -4.24217 114.97754 21902 ft 423 kts 207°
2026-04-14 05:59 -4.26835 114.96391 22259 ft 425 kts 207°
2026-04-14 05:59 -4.29473 114.95017 22640 ft 427 kts 207°
2026-04-14 06:00 -4.32979 114.93193 23094 ft 430 kts 207°
2026-04-14 06:00 -4.35637 114.91808 23417 ft 432 kts 207°
2026-04-14 06:00 -4.38317 114.90412 23735 ft 434 kts 207°
2026-04-14 06:00 -4.40130 114.89468 23951 ft 435 kts 207°
2026-04-14 06:01 -4.42788 114.88084 24266 ft 436 kts 207°
2026-04-14 06:01 -4.45488 114.86678 24543 ft 439 kts 207°
2026-04-14 06:01 -4.48210 114.85260 24815 ft 442 kts 207°
2026-04-14 06:01 -4.50947 114.83834 25050 ft 445 kts 207°
2026-04-14 06:02 -4.53707 114.82395 25316 ft 447 kts 207°
2026-04-14 06:02 -4.56477 114.80952 25606 ft 448 kts 207°
2026-04-14 06:02 -4.59208 114.79529 25851 ft 450 kts 207°
2026-04-14 06:02 -4.61997 114.78076 26080 ft 452 kts 207°
2026-04-14 06:03 -4.64797 114.76616 26338 ft 454 kts 207°
2026-04-14 06:03 -4.67609 114.75150 26613 ft 455 kts 207°
2026-04-14 06:03 -4.70422 114.73683 26866 ft 457 kts 207°
2026-04-14 06:04 -4.76085 114.70728 27315 ft 460 kts 207°
2026-04-14 06:04 -4.78932 114.69243 27531 ft 462 kts 207°
2026-04-14 06:04 -4.81790 114.67753 27742 ft 464 kts 207°
2026-04-14 06:04 -4.84658 114.66257 27951 ft 465 kts 207°
2026-04-14 06:05 -4.87537 114.64755 28148 ft 467 kts 207°
2026-04-14 06:05 -4.90434 114.63243 28341 ft 469 kts 207°
2026-04-14 06:05 -4.93326 114.61732 28552 ft 470 kts 207°
2026-04-14 06:05 -4.96203 114.60231 28747 ft 471 kts 207°
2026-04-14 06:06 -4.99114 114.58720 28921 ft 473 kts 207°
2026-04-14 06:06 -5.02047 114.57210 29102 ft 474 kts 206°
2026-04-14 06:06 -5.04994 114.55697 29287 ft 475 kts 206°
2026-04-14 06:06 -5.07945 114.54186 29461 ft 477 kts 206°
2026-04-14 06:07 -5.10904 114.52669 29664 ft 478 kts 206°
2026-04-14 06:07 -5.13835 114.51166 29936 ft 477 kts 206°
2026-04-14 06:07 -5.16783 114.49652 30226 ft 475 kts 206°
2026-04-14 06:07 -5.19725 114.48139 30497 ft 475 kts 206°
2026-04-14 06:08 -5.22661 114.46629 30781 ft 474 kts 206°
2026-04-14 06:08 -5.25591 114.45122 31060 ft 473 kts 206°
2026-04-14 06:08 -5.28523 114.43612 31355 ft 472 kts 206°
2026-04-14 06:08 -5.31446 114.42108 31662 ft 470 kts 206°
2026-04-14 06:09 -5.34347 114.40614 31951 ft 469 kts 206°
2026-04-14 06:09 -5.37259 114.39116 32196 ft 469 kts 206°
2026-04-14 06:09 -5.40163 114.37621 32490 ft 468 kts 206°
2026-04-14 06:09 -5.43024 114.36149 32785 ft 467 kts 206°
2026-04-14 06:10 -5.45910 114.34663 33078 ft 465 kts 206°
2026-04-14 06:10 -5.48787 114.33182 33373 ft 464 kts 206°
2026-04-14 06:10 -5.51658 114.31705 33633 ft 463 kts 206°
2026-04-14 06:10 -5.54527 114.30227 33886 ft 463 kts 206°
2026-04-14 06:11 -5.57397 114.28749 34186 ft 462 kts 206°
2026-04-14 06:11 -5.60255 114.27276 34485 ft 460 kts 206°
2026-04-14 06:11 -5.63101 114.25809 34753 ft 459 kts 206°
2026-04-14 06:11 -5.65949 114.24342 35029 ft 458 kts 206°
2026-04-14 06:12 -5.68781 114.22882 35322 ft 457 kts 206°
2026-04-14 06:12 -5.71565 114.21447 35582 ft 455 kts 206°
2026-04-14 06:12 -5.74420 114.19974 35802 ft 455 kts 206°
2026-04-14 06:13 -5.80038 114.17079 35889 ft 457 kts 206°
2026-04-14 06:13 -5.85681 114.14170 35884 ft 454 kts 206°
2026-04-14 06:14 -5.91279 114.11282 35885 ft 451 kts 206°
2026-04-14 06:14 -5.96853 114.08406 35891 ft 449 kts 206°
2026-04-14 06:15 -6.02406 114.05542 35893 ft 448 kts 206°
2026-04-14 06:15 -6.07957 114.02677 35887 ft 448 kts 206°
2026-04-14 06:16 -6.13474 113.99829 35893 ft 449 kts 206°
2026-04-14 06:16 -6.19040 113.96955 35893 ft 450 kts 206°
2026-04-14 06:17 -6.24625 113.94070 35891 ft 453 kts 206°
2026-04-14 06:17 -6.30241 113.91169 35890 ft 454 kts 206°
2026-04-14 06:18 -6.35878 113.88256 35889 ft 456 kts 206°
2026-04-14 06:18 -6.41539 113.85339 35864 ft 457 kts 204°
2026-04-14 06:18 -6.44554 113.84406 35888 ft 453 kts 185°
2026-04-14 06:19 -6.47648 113.84422 35892 ft 452 kts 171°
2026-04-14 06:19 -6.50716 113.85214 35883 ft 451 kts 156°
2026-04-14 06:19 -6.53477 113.86647 35907 ft 451 kts 150°
2026-04-14 06:20 -6.58890 113.89862 35890 ft 453 kts 149°
2026-04-14 06:20 -6.64309 113.93118 35888 ft 454 kts 149°
2026-04-14 06:21 -6.69760 113.96333 35884 ft 454 kts 150°
2026-04-14 06:21 -6.75193 113.99504 35892 ft 453 kts 150°
2026-04-14 06:21 -6.77961 114.01116 35588 ft 458 kts 150°
2026-04-14 06:22 -6.80696 114.02708 35031 ft 458 kts 150°
2026-04-14 06:22 -6.83448 114.04311 34367 ft 458 kts 150°
2026-04-14 06:22 -6.86204 114.05918 33733 ft 457 kts 149°
2026-04-14 06:22 -6.88943 114.07514 33280 ft 452 kts 149°
2026-04-14 06:23 -6.91655 114.09095 32792 ft 448 kts 149°
2026-04-14 06:23 -6.94344 114.10663 32316 ft 444 kts 149°
2026-04-14 06:23 -6.97005 114.12215 31847 ft 440 kts 149°
2026-04-14 06:23 -6.99651 114.13759 31370 ft 436 kts 149°
2026-04-14 06:24 -7.02262 114.15283 30907 ft 433 kts 150°
2026-04-14 06:24 -7.04828 114.16780 30455 ft 429 kts 150°
2026-04-14 06:24 -7.07399 114.18282 29996 ft 425 kts 150°
2026-04-14 06:24 -7.09953 114.19772 29534 ft 422 kts 150°
2026-04-14 06:25 -7.12481 114.21248 29076 ft 418 kts 150°
2026-04-14 06:25 -7.14994 114.22716 28604 ft 415 kts 150°
2026-04-14 06:25 -7.17482 114.24168 28140 ft 411 kts 150°
2026-04-14 06:25 -7.19952 114.25610 27678 ft 408 kts 150°
2026-04-14 06:26 -7.22394 114.27038 27221 ft 405 kts 150°
2026-04-14 06:26 -7.24824 114.28458 26767 ft 402 kts 150°
2026-04-14 06:26 -7.27236 114.29867 26313 ft 399 kts 150°
2026-04-14 06:26 -7.29598 114.31248 25871 ft 396 kts 150°
2026-04-14 06:27 -7.31975 114.32637 25424 ft 393 kts 150°
2026-04-14 06:27 -7.34334 114.34015 24978 ft 390 kts 150°
2026-04-14 06:27 -7.36682 114.35388 24540 ft 388 kts 150°
2026-04-14 06:27 -7.39004 114.36745 24102 ft 385 kts 150°
2026-04-14 06:28 -7.41319 114.38100 23664 ft 383 kts 150°
2026-04-14 06:28 -7.43619 114.39432 23227 ft 380 kts 153°
2026-04-14 06:28 -7.46082 114.40263 22807 ft 377 kts 172°
2026-04-14 06:28 -7.48680 114.40289 22536 ft 373 kts 186°
2026-04-14 06:29 -7.51268 114.39941 22256 ft 379 kts 188°
2026-04-14 06:29 -7.53895 114.39535 21946 ft 386 kts 188°
2026-04-14 06:29 -7.56562 114.39122 21626 ft 386 kts 188°
2026-04-14 06:29 -7.59211 114.38727 21299 ft 382 kts 188°
2026-04-14 06:30 -7.61827 114.38352 20986 ft 378 kts 187°
2026-04-14 06:30 -7.64424 114.37987 20685 ft 375 kts 187°
2026-04-14 06:30 -7.67008 114.37626 20377 ft 373 kts 187°
2026-04-14 06:30 -7.69575 114.37274 20093 ft 371 kts 185°
2026-04-14 06:31 -7.72100 114.37412 19776 ft 369 kts 165°
2026-04-14 06:31 -7.74508 114.38291 19524 ft 367 kts 157°
2026-04-14 06:31 -7.76844 114.39321 19219 ft 367 kts 156°
2026-04-14 06:31 -7.79175 114.40375 18930 ft 367 kts 155°
2026-04-14 06:32 -7.81515 114.41427 18623 ft 367 kts 156°
2026-04-14 06:32 -7.83858 114.42465 18322 ft 368 kts 156°
2026-04-14 06:32 -7.86210 114.43497 18023 ft 367 kts 156°
2026-04-14 06:32 -7.88530 114.44506 17733 ft 367 kts 156°
2026-04-14 06:33 -7.90871 114.45523 17439 ft 366 kts 156°
2026-04-14 06:33 -7.93203 114.46537 17144 ft 364 kts 156°
2026-04-14 06:33 -7.95534 114.47550 16837 ft 363 kts 156°
2026-04-14 06:34 -8.00165 114.49563 16079 ft 361 kts 156°
2026-04-14 06:34 -8.02466 114.50562 15704 ft 358 kts 156°
2026-04-14 06:34 -8.04746 114.51553 15333 ft 354 kts 156°
2026-04-14 06:34 -8.06996 114.52531 14963 ft 350 kts 156°
2026-04-14 06:35 -8.09191 114.53487 14606 ft 346 kts 156°
2026-04-14 06:35 -8.11391 114.54444 14251 ft 342 kts 156°
2026-04-14 06:35 -8.13570 114.55392 13896 ft 339 kts 156°
2026-04-14 06:35 -8.15725 114.56331 13543 ft 335 kts 156°
2026-04-14 06:36 -8.17861 114.57259 13199 ft 332 kts 156°
2026-04-14 06:36 -8.19977 114.58179 12853 ft 329 kts 156°
2026-04-14 06:36 -8.22071 114.59091 12512 ft 326 kts 156°
2026-04-14 06:36 -8.24153 114.59996 12183 ft 324 kts 156°
2026-04-14 06:37 -8.26197 114.60886 11857 ft 322 kts 156°
2026-04-14 06:37 -8.28248 114.61778 11547 ft 321 kts 156°
2026-04-14 06:37 -8.30308 114.62673 11234 ft 324 kts 156°
2026-04-14 06:37 -8.32384 114.63574 10921 ft 323 kts 156°
2026-04-14 06:38 -8.34441 114.64466 10620 ft 319 kts 156°
2026-04-14 06:38 -8.36441 114.65336 10349 ft 314 kts 156°
2026-04-14 06:38 -8.38435 114.66203 10092 ft 309 kts 156°
2026-04-14 06:38 -8.40398 114.67058 9817 ft 306 kts 155°
2026-04-14 06:39 -8.42345 114.67905 9525 ft 302 kts 155°
2026-04-14 06:39 -8.44262 114.68738 9237 ft 299 kts 155°
2026-04-14 06:39 -8.46161 114.69564 8961 ft 296 kts 155°
2026-04-14 06:39 -8.48039 114.70384 8673 ft 293 kts 155°
2026-04-14 06:40 -8.49901 114.71198 8394 ft 290 kts 155°
2026-04-14 06:40 -8.51727 114.71995 8113 ft 287 kts 155°
2026-04-14 06:40 -8.53553 114.72793 7817 ft 285 kts 155°
2026-04-14 06:40 -8.55345 114.73627 7538 ft 282 kts 147°
2026-04-14 06:41 -8.56905 114.74799 7288 ft 277 kts 138°
2026-04-14 06:41 -8.58347 114.76078 7014 ft 275 kts 137°
2026-04-14 06:41 -8.59765 114.77361 6730 ft 272 kts 137°
2026-04-14 06:41 -8.61169 114.78622 6456 ft 267 kts 137°
2026-04-14 06:42 -8.62552 114.79850 6209 ft 262 kts 137°
2026-04-14 06:42 -8.63910 114.81044 5951 ft 256 kts 137°
2026-04-14 06:42 -8.65243 114.82209 5699 ft 250 kts 137°
2026-04-14 06:42 -8.66545 114.83345 5456 ft 245 kts 137°
2026-04-14 06:43 -8.67828 114.84461 5225 ft 240 kts 138°
2026-04-14 06:43 -8.69082 114.85550 4995 ft 236 kts 137°
2026-04-14 06:43 -8.70304 114.86612 4764 ft 234 kts 138°
2026-04-14 06:43 -8.71534 114.87679 4534 ft 232 kts 138°
2026-04-14 06:44 -8.72754 114.88732 4311 ft 228 kts 138°
2026-04-14 06:44 -8.73964 114.89780 4103 ft 230 kts 138°
2026-04-14 06:44 -8.75082 114.90932 3854 ft 231 kts 117°
2026-04-14 06:44 -8.75466 114.92502 3677 ft 233 kts 94°
2026-04-14 06:45 -8.75575 114.94150 3433 ft 235 kts 94°
2026-04-14 06:45 -8.75623 114.95795 3194 ft 233 kts 90°
2026-04-14 06:45 -8.75593 114.97421 3047 ft 228 kts 88°
2026-04-14 06:45 -8.75537 114.98990 3028 ft 224 kts 88°
2026-04-14 06:46 -8.75415 115.02054 2522 ft 211 kts 89°
2026-04-14 06:46 -8.75357 115.03504 2264 ft 201 kts 89°
2026-04-14 06:46 -8.75303 115.04872 2010 ft 187 kts 90°
2026-04-14 06:47 -8.75270 115.05719 1863 ft 177 kts 90°
2026-04-14 06:47 -8.75208 115.07294 1566 ft 159 kts 91°
2026-04-14 06:47 -8.75166 115.08369 1406 ft 148 kts 91°
2026-04-14 06:47 -8.75140 115.09053 1262 ft 144 kts 92°
2026-04-14 06:48 -8.75101 115.10056 1071 ft 139 kts 92°
2026-04-14 06:48 -8.75063 115.11013 905 ft 139 kts 90°
2026-04-14 06:48 -8.75027 115.12011 722 ft 144 kts 90°
2026-04-14 06:48 -8.74987 115.13022 540 ft 144 kts 90°
2026-04-14 06:49 -8.74948 115.14032 344 ft 142 kts 90°
2026-04-14 06:49 -8.74905 115.15037 148 ft 145 kts 90°
2026-04-14 06:49 -8.74876 115.16030 28 ft 129 kts 88°
2026-04-14 06:49 -8.74842 115.16785 31 ft 86 kts 88°
2026-04-14 06:50 -8.74824 115.17180 27 ft 24 kts 88°
2026-04-14 06:50 -8.74803 115.17301 28 ft 8 kts 45°
2026-04-14 06:50 -8.74751 115.17314 28 ft 8 kts 358°
2026-04-14 06:50 -8.74698 115.17312 30 ft 7 kts 355°
2026-04-14 06:51 -8.74661 115.17281 31 ft 7 kts 289°
2026-04-14 06:51 -8.74658 115.17230 31 ft 8 kts 270°
2026-04-14 06:51 -8.74660 115.17171 31 ft 9 kts 268°
2026-04-14 06:51 -8.74663 115.17103 31 ft 11 kts 266°
2026-04-14 06:52 -8.74669 115.17022 31 ft 11 kts 266°
2026-04-14 06:52 -8.74673 115.16943 31 ft 11 kts 268°
2026-04-14 06:52 -8.74674 115.16866 31 ft 11 kts 269°
2026-04-14 06:52 -8.74674 115.16790 31 ft 11 kts 269°
2026-04-14 06:53 -8.74678 115.16717 31 ft 10 kts 266°
2026-04-14 06:53 -8.74682 115.16646 31 ft 11 kts 266°
2026-04-14 06:53 -8.74687 115.16547 31 ft 17 kts 268°
2026-04-14 06:53 -8.74691 115.16429 32 ft 16 kts 267°
2026-04-14 06:54 -8.74696 115.16316 32 ft 16 kts 268°
2026-04-14 06:54 -8.74701 115.16207 32 ft 15 kts 268°
2026-04-14 06:54 -8.74700 115.16103 32 ft 15 kts 292°
2026-04-14 06:54 -8.74633 115.16071 32 ft 10 kts 354°
2026-04-14 06:55 -8.74577 115.16068 32 ft 7 kts 358°
2026-04-14 06:55 -8.74539 115.16083 32 ft 4 kts 75°
2026-04-14 06:55 -8.74537 115.16107 32 ft 1 kts 84°
2026-04-14 06:55 -8.74536 115.16119 32 ft 2 kts 87°
2026-04-14 06:56 -8.74536 115.16133 32 ft 0 kts 87°